Regional Weather Roundup
Issued by NWS

Home | Current Version | Previous Version | Graphics & Text | Print | Product List | Glossary On
Versions: 1 2 3 4 5 6 7 8 9 10 11 12 13 14 15 16 17 18 19 20 21 22 23 24 25 26 27
000
ASUS45 KBOI 122110
RWRID

IDAHO REGIONAL WEATHER ROUNDUP
NATIONAL WEATHER SERVICE BOISE ID
200 PM MST TUE DEC 12 2017

NOTE: "FAIR" INDICATES FEW OR NO CLOUDS BELOW 12000 FEET
WITH NO SIGNIFICANT WEATHER AND/OR OBSTRUCTIONS TO VISIBILITY

IDZ012-014-122200-
SOUTHWEST IDAHO


CITY           SKY/WX    TMP DP  RH WIND       PRES   REMARKS
BOISE          CLOUDY    24  21  88 NE6       30.61F FOG     WCI  17
CALDWELL       NOT AVBL
MOUNTAIN HOME  FOG       23  23 100 W6        30.59F VSB 1/2 WCI  16
$$

IDZ016-017-122200-
SOUTHCENTRAL IDAHO


CITY           SKY/WX    TMP DP  RH WIND       PRES   REMARKS
BURLEY         CLOUDY    25  20  81 CALM      30.49F HAZE
JEROME         HAZE      26  21  81 SE6       30.51F VSB 1/4 WCI  19
TWIN FALLS     FOG       25  22  88 SE5       30.50F VSB 1/4 WCI  19
$$

IDZ019>023-122200-
SOUTHEAST IDAHO


CITY           SKY/WX    TMP DP  RH WIND       PRES   REMARKS
IDAHO FALLS    CLOUDY    29  19  66 CALM      30.48F
POCATELLO      CLOUDY    32  22  66 CALM      30.48F
REXBURG        CLOUDY    30  17  58 E5        30.45F WCI  25
$$

IDZ006-010-011-018-031-032-122200-
CENTRAL IDAHO MOUNTAINS


CITY           SKY/WX    TMP DP  RH WIND       PRES   REMARKS
MCCALL         SUNNY     23  19  85 S5        30.46F WCI  17
HAILEY         SUNNY     41  18  38 SE6       30.45F
STANLEY          N/A     20  12  71 CALM      30.47F
SALMON         CLOUDY    16  13  88 CALM      30.57F
CHALLIS        SUNNY     28  13  53 E3        30.44F
$$

IDZ002-004-006-007-026-122200-
NORTHERN IDAHO


CITY           SKY/WX    TMP DP  RH WIND       PRES   REMARKS
LEWISTON       CLOUDY    31  24  75 NW5       30.57F WCI  26
LOWELL           N/A     39  28  64 CALM      30.55F
COEUR D`ALENE  CLOUDY    28  25  88 W6        30.51F WCI  22
MULLAN PASS    MOSUNNY   34  11  38 VRB3      30.35F
$$




USA.gov is the U.S. government's official web portal to all federal, state and local government web resources and services.